Time,TemperatureF,DewpointF,PressureIn,WindDirection,WindDirectionDegrees,WindSpeedMPH,WindSpeedGustMPH,Humidity,HourlyPrecipIn,Conditions,Clouds,dailyrainin,SoftwareType,DateUTC
2013-03-19 00:00:00,34.2,27.1,30.24,SE,124,3.0,8.0,75,0.00,,,0.00,Wunderground v.1.15,2013-03-19 04:00:00,
2013-03-19 00:05:00,33.9,27.1,30.24,East,79,3.0,8.0,76,0.00,,,0.00,Wunderground v.1.15,2013-03-19 04:05:00,
2013-03-19 00:10:00,33.7,27.6,30.23,ENE,74,3.0,8.0,78,0.00,,,0.00,Wunderground v.1.15,2013-03-19 04:10:00,
2013-03-19 00:15:00,33.6,27.2,30.23,ENE,78,3.0,8.0,77,0.00,,,0.00,Wunderground v.1.15,2013-03-19 04:15:00,
2013-03-19 00:20:00,33.7,27.3,30.23,ENE,63,3.0,3.0,77,0.00,,,0.00,Wunderground v.1.15,2013-03-19 04:20:00,
2013-03-19 00:25:00,33.7,26.9,30.22,East,84,2.0,8.0,76,0.00,,,0.00,Wunderground v.1.15,2013-03-19 04:25:00,
2013-03-19 00:35:00,33.9,27.1,30.21,SE,126,3.0,8.0,76,0.00,,,0.00,Wunderground v.1.15,2013-03-19 04:35:00,
2013-03-19 00:40:00,34.0,26.9,30.21,SE,127,3.0,8.0,75,0.00,,,0.00,Wunderground v.1.15,2013-03-19 04:40:00,
2013-03-19 00:45:00,34.1,27.0,30.20,East,86,4.0,8.0,75,0.00,,,0.00,Wunderground v.1.15,2013-03-19 04:45:00,
2013-03-19 00:50:00,34.2,27.1,30.20,SE,127,5.0,5.0,75,0.00,,,0.00,Wunderground v.1.15,2013-03-19 04:50:00,
2013-03-19 00:55:00,34.2,27.1,30.19,ENE,78,4.0,8.0,75,0.00,,,0.00,Wunderground v.1.15,2013-03-19 04:55:00,
2013-03-19 01:00:00,34.2,27.1,30.17,NE,48,4.0,9.0,75,0.00,,,0.00,Wunderground v.1.15,2013-03-19 05:00:00,
2013-03-19 01:10:00,34.3,26.9,30.16,ESE,115,4.0,4.0,74,0.00,,,0.00,Wunderground v.1.15,2013-03-19 05:10:00,
2013-03-19 01:15:00,34.5,26.7,30.15,East,94,4.0,9.0,73,0.00,,,0.00,Wunderground v.1.15,2013-03-19 05:15:00,
2013-03-19 01:20:00,34.6,26.8,30.15,East,82,4.0,9.0,73,0.00,,,0.00,Wunderground v.1.15,2013-03-19 05:20:00,
2013-03-19 01:25:00,34.8,26.7,30.15,ENE,75,5.0,9.0,72,0.00,,,0.00,Wunderground v.1.15,2013-03-19 05:25:00,
2013-03-19 01:30:00,34.8,26.7,30.14,ESE,102,5.0,9.0,72,0.00,,,0.00,Wunderground v.1.15,2013-03-19 05:30:00,
2013-03-19 01:35:00,35.0,26.9,30.14,ESE,120,5.0,9.0,72,0.00,,,0.00,Wunderground v.1.15,2013-03-19 05:35:00,
2013-03-19 01:40:00,35.1,27.0,30.14,ESE,108,5.0,5.0,72,0.00,,,0.00,Wunderground v.1.15,2013-03-19 05:40:00,
2013-03-19 01:50:00,35.0,27.5,30.13,ESE,117,6.0,6.0,74,0.00,,,0.00,Wunderground v.1.15,2013-03-19 05:50:00,
2013-03-19 01:55:00,34.8,27.7,30.13,ESE,113,6.0,9.0,75,0.00,,,0.00,Wunderground v.1.15,2013-03-19 05:55:00,
2013-03-19 02:00:00,34.7,28.2,30.13,ESE,115,6.0,12.0,77,0.00,,,0.00,Wunderground v.1.15,2013-03-19 06:00:00,
2013-03-19 02:10:00,34.4,28.6,30.12,East,101,6.0,6.0,79,0.00,,,0.00,Wunderground v.1.15,2013-03-19 06:10:00,
2013-03-19 02:20:00,34.0,28.8,30.10,SE,137,4.0,12.0,81,0.00,,,0.00,Wunderground v.1.15,2013-03-19 06:20:00,
2013-03-19 02:25:00,33.9,29.3,30.10,East,92,5.0,12.0,83,0.00,,,0.00,Wunderground v.1.15,2013-03-19 06:25:00,
2013-03-19 02:30:00,33.9,29.3,30.09,ENE,77,5.0,5.0,83,0.00,,,0.00,Wunderground v.1.15,2013-03-19 06:30:00,
2013-03-19 02:35:00,33.8,29.5,30.09,ENE,58,4.0,12.0,84,0.00,,,0.00,Wunderground v.1.15,2013-03-19 06:35:00,
2013-03-19 02:40:00,33.8,29.8,30.09,East,98,4.0,4.0,85,0.00,,,0.01,Wunderground v.1.15,2013-03-19 06:40:00,
2013-03-19 02:45:00,33.7,29.7,30.08,East,101,4.0,12.0,85,0.00,,,0.01,Wunderground v.1.15,2013-03-19 06:45:00,
2013-03-19 02:50:00,33.7,30.0,30.07,East,99,4.0,12.0,86,0.00,,,0.01,Wunderground v.1.15,2013-03-19 06:50:00,
2013-03-19 03:00:00,33.7,30.0,30.07,East,101,5.0,11.0,86,0.04,,,0.02,Wunderground v.1.15,2013-03-19 07:00:00,
2013-03-19 03:10:00,33.7,30.2,30.06,ESE,118,5.0,11.0,87,0.06,,,0.03,Wunderground v.1.15,2013-03-19 07:10:00,
2013-03-19 03:15:00,33.7,30.2,30.06,SE,124,5.0,11.0,87,0.07,,,0.04,Wunderground v.1.15,2013-03-19 07:15:00,
2013-03-19 03:20:00,33.6,30.4,30.06,SE,133,5.0,5.0,88,0.12,,,0.00,Wunderground v.1.15,2013-03-19 07:20:00,
2013-03-19 03:25:00,33.6,30.7,30.06,SE,129,5.0,11.0,89,0.12,,,0.01,Wunderground v.1.15,2013-03-19 07:25:00,
2013-03-19 03:35:00,33.7,30.8,30.06,East,90,4.0,11.0,89,0.14,,,0.03,Wunderground v.1.15,2013-03-19 07:35:00,
2013-03-19 03:40:00,33.7,31.1,30.05,ENE,70,5.0,5.0,90,0.13,,,0.04,Wunderground v.1.15,2013-03-19 07:40:00,
2013-03-19 03:45:00,33.8,31.2,30.05,ENE,78,5.0,11.0,90,0.10,,,0.05,Wunderground v.1.15,2013-03-19 07:45:00,
2013-03-19 03:50:00,33.8,31.5,30.04,East,84,5.0,11.0,91,0.12,,,0.06,Wunderground v.1.15,2013-03-19 07:50:00,
2013-03-19 03:55:00,33.8,31.5,30.04,East,93,4.0,11.0,91,0.12,,,0.07,Wunderground v.1.15,2013-03-19 07:55:00,
2013-03-19 04:00:00,33.9,31.6,30.03,ESE,103,4.0,11.0,91,0.11,,,0.08,Wunderground v.1.15,2013-03-19 08:00:00,
2013-03-19 04:10:00,34.1,31.7,30.03,East,88,6.0,11.0,91,0.14,,,0.11,Wunderground v.1.15,2013-03-19 08:10:00,
2013-03-19 04:15:00,34.1,31.7,30.02,ESE,123,6.0,11.0,91,0.14,,,0.12,Wunderground v.1.15,2013-03-19 08:15:00,
2013-03-19 04:20:00,34.2,32.1,30.01,ESE,108,5.0,11.0,92,0.18,,,0.14,Wunderground v.1.15,2013-03-19 08:20:00,
2013-03-19 04:25:00,34.2,31.8,30.01,East,86,5.0,11.0,91,0.10,,,0.14,Wunderground v.1.15,2013-03-19 08:25:00,
2013-03-19 04:30:00,34.3,32.2,30.00,ESE,111,5.0,11.0,92,0.15,,,0.16,Wunderground v.1.15,2013-03-19 08:30:00,
2013-03-19 04:35:00,34.3,32.2,30.00,ENE,73,5.0,11.0,92,0.11,,,0.16,Wunderground v.1.15,2013-03-19 08:35:00,
2013-03-19 04:45:00,34.4,32.3,29.99,East,100,6.0,11.0,92,0.11,,,0.18,Wunderground v.1.15,2013-03-19 08:45:00,
2013-03-19 04:50:00,34.5,32.4,29.99,ESE,117,5.0,5.0,92,0.09,,,0.19,Wunderground v.1.15,2013-03-19 08:50:00,
2013-03-19 04:55:00,34.6,32.5,29.99,East,79,5.0,11.0,92,0.09,,,0.20,Wunderground v.1.15,2013-03-19 08:55:00,
2013-03-19 05:00:00,34.7,32.6,29.99,ENE,70,5.0,13.0,92,0.08,,,0.21,Wunderground v.1.15,2013-03-19 09:00:00,
2013-03-19 05:10:00,34.9,32.8,29.99,ESE,109,6.0,6.0,92,0.12,,,0.23,Wunderground v.1.15,2013-03-19 09:10:00,
2013-03-19 05:15:00,35.0,32.9,29.99,East,93,5.0,13.0,92,0.09,,,0.24,Wunderground v.1.15,2013-03-19 09:15:00,
2013-03-19 05:25:00,35.2,33.4,29.98,NE,35,6.0,13.0,93,0.08,,,0.25,Wunderground v.1.15,2013-03-19 09:25:00,
2013-03-19 05:30:00,35.3,33.5,29.98,East,83,6.0,13.0,93,0.12,,,0.26,Wunderground v.1.15,2013-03-19 09:30:00,
2013-03-19 05:35:00,35.3,33.5,29.98,East,96,5.0,13.0,93,0.08,,,0.26,Wunderground v.1.15,2013-03-19 09:35:00,
2013-03-19 05:40:00,35.3,33.5,29.98,East,82,4.0,13.0,93,0.06,,,0.27,Wunderground v.1.15,2013-03-19 09:40:00,
2013-03-19 05:45:00,35.4,33.6,29.99,NE,47,5.0,13.0,93,0.06,,,0.27,Wunderground v.1.15,2013-03-19 09:45:00,
2013-03-19 05:50:00,35.4,33.6,29.99,ESE,103,5.0,5.0,93,0.05,,,0.28,Wunderground v.1.15,2013-03-19 09:50:00,
2013-03-19 06:00:00,35.5,33.7,29.99,East,100,4.0,14.0,93,0.05,,,0.28,Wunderground v.1.15,2013-03-19 10:00:00,
2013-03-19 06:10:00,35.5,33.7,29.99,ENE,72,4.0,14.0,93,0.09,,,0.30,Wunderground v.1.15,2013-03-19 10:10:00,
2013-03-19 06:15:00,35.6,33.8,29.99,East,95,5.0,14.0,93,0.09,,,0.31,Wunderground v.1.15,2013-03-19 10:15:00,
2013-03-19 06:20:00,35.6,33.8,29.98,East,93,5.0,14.0,93,0.09,,,0.31,Wunderground v.1.15,2013-03-19 10:20:00,
2013-03-19 06:25:00,35.6,33.8,29.99,East,90,5.0,14.0,93,0.10,,,0.32,Wunderground v.1.15,2013-03-19 10:25:00,
2013-03-19 06:35:00,35.7,33.9,29.98,East,92,6.0,14.0,93,0.12,,,0.34,Wunderground v.1.15,2013-03-19 10:35:00,
2013-03-19 06:45:00,35.8,34.0,29.98,ENE,62,5.0,14.0,93,0.07,,,0.35,Wunderground v.1.15,2013-03-19 10:45:00,
2013-03-19 06:50:00,35.9,34.1,29.97,ESE,108,6.0,6.0,93,0.07,,,0.35,Wunderground v.1.15,2013-03-19 10:50:00,
2013-03-19 06:55:00,35.9,34.1,29.97,East,86,6.0,14.0,93,0.07,,,0.36,Wunderground v.1.15,2013-03-19 10:55:00,
2013-03-19 07:00:00,35.9,34.1,29.97,ENE,77,5.0,13.0,93,0.07,,,0.36,Wunderground v.1.15,2013-03-19 11:00:00,
2013-03-19 07:10:00,36.0,34.2,29.96,North,3,5.0,13.0,93,0.06,,,0.37,Wunderground v.1.15,2013-03-19 11:10:00,
2013-03-19 07:15:00,36.1,34.3,29.95,NE,41,5.0,13.0,93,0.06,,,0.38,Wunderground v.1.15,2013-03-19 11:15:00,
2013-03-19 07:20:00,36.2,34.4,29.95,ENE,68,6.0,6.0,93,0.06,,,0.38,Wunderground v.1.15,2013-03-19 11:20:00,
2013-03-19 07:25:00,36.4,34.6,29.94,East,96,6.0,13.0,93,0.06,,,0.39,Wunderground v.1.15,2013-03-19 11:25:00,
2013-03-19 07:30:00,36.5,34.9,29.93,East,101,5.0,13.0,94,0.08,,,0.40,Wunderground v.1.15,2013-03-19 11:30:00,
2013-03-19 07:35:00,36.6,35.0,29.93,ESE,109,5.0,13.0,94,0.08,,,0.40,Wunderground v.1.15,2013-03-19 11:35:00,
2013-03-19 07:40:00,36.7,34.9,29.93,East,91,6.0,6.0,93,0.07,,,0.41,Wunderground v.1.15,2013-03-19 11:40:00,
2013-03-19 07:45:00,36.8,35.0,29.93,ENE,63,5.0,7.0,93,0.07,,,0.41,Wunderground v.1.15,2013-03-19 11:45:00,
2013-03-19 07:55:00,37.0,35.2,29.93,SE,146,6.0,13.0,93,0.05,,,0.42,Wunderground v.1.15,2013-03-19 11:55:00,
2013-03-19 08:00:00,37.1,35.5,29.92,ENE,64,5.0,17.0,94,0.05,,,0.42,Wunderground v.1.15,2013-03-19 12:00:00,
2013-03-19 08:10:00,37.3,35.7,29.91,NE,55,6.0,17.0,94,0.11,,,0.44,Wunderground v.1.15,2013-03-19 12:10:00,
2013-03-19 08:15:00,37.4,35.8,29.91,SE,136,6.0,17.0,94,0.08,,,0.45,Wunderground v.1.15,2013-03-19 12:15:00,
2013-03-19 08:20:00,37.5,35.9,29.91,ESE,115,6.0,17.0,94,0.09,,,0.46,Wunderground v.1.15,2013-03-19 12:20:00,
2013-03-19 08:30:00,37.7,35.9,29.90,NE,50,6.0,17.0,93,0.06,,,0.46,Wunderground v.1.15,2013-03-19 12:30:00,
2013-03-19 08:35:00,37.8,36.2,29.89,East,84,6.0,17.0,94,0.05,,,0.47,Wunderground v.1.15,2013-03-19 12:35:00,
2013-03-19 08:40:00,37.9,36.3,29.89,NW,321,6.0,17.0,94,0.09,,,0.48,Wunderground v.1.15,2013-03-19 12:40:00,
2013-03-19 08:45:00,38.0,36.4,29.88,ENE,78,6.0,17.0,94,0.11,,,0.49,Wunderground v.1.15,2013-03-19 12:45:00,
2013-03-19 08:50:00,38.1,36.5,29.88,ESE,112,7.0,7.0,94,0.13,,,0.50,Wunderground v.1.15,2013-03-19 12:50:00,
2013-03-19 08:55:00,38.3,36.7,29.88,ENE,57,6.0,17.0,94,0.11,,,0.51,Wunderground v.1.15,2013-03-19 12:55:00,
2013-03-19 09:00:00,38.4,36.8,29.87,East,91,6.0,14.0,94,0.11,,,0.51,Wunderground v.1.15,2013-03-19 13:00:00,
2013-03-19 09:10:00,38.7,37.1,29.86,ESE,115,6.0,6.0,94,0.09,,,0.53,Wunderground v.1.15,2013-03-19 13:10:00,
2013-03-19 09:15:00,38.8,37.2,29.85,East,79,7.0,7.0,94,0.14,,,0.54,Wunderground v.1.15,2013-03-19 13:15:00,
2013-03-19 09:20:00,38.9,37.3,29.85,SE,128,7.0,14.0,94,0.08,,,0.54,Wunderground v.1.15,2013-03-19 13:20:00,
2013-03-19 09:25:00,39.0,37.4,29.85,East,86,7.0,14.0,94,0.05,,,0.54,Wunderground v.1.15,2013-03-19 13:25:00,
2013-03-19 09:30:00,39.0,37.1,29.84,NE,43,7.0,7.0,93,0.00,,,0.54,Wunderground v.1.15,2013-03-19 13:30:00,
2013-03-19 09:35:00,39.1,37.5,29.84,East,81,6.0,9.0,94,0.00,,,0.55,Wunderground v.1.15,2013-03-19 13:35:00,
2013-03-19 09:45:00,39.1,37.5,29.83,ESE,115,6.0,14.0,94,0.07,,,0.56,Wunderground v.1.15,2013-03-19 13:45:00,
2013-03-19 09:50:00,39.2,37.6,29.83,ESE,112,7.0,7.0,94,0.06,,,0.56,Wunderground v.1.15,2013-03-19 13:50:00,
2013-03-19 10:00:00,39.3,37.7,29.82,East,90,6.0,15.0,94,0.04,,,0.57,Wunderground v.1.15,2013-03-19 14:00:00,
2013-03-19 10:10:00,39.5,37.9,29.81,East,82,6.0,15.0,94,0.04,,,0.57,Wunderground v.1.15,2013-03-19 14:10:00,
2013-03-19 10:15:00,39.6,38.0,29.81,ENE,57,7.0,15.0,94,0.00,,,0.58,Wunderground v.1.15,2013-03-19 14:15:00,
2013-03-19 10:20:00,39.7,38.1,29.81,East,94,6.0,15.0,94,0.00,,,0.58,Wunderground v.1.15,2013-03-19 14:20:00,
2013-03-19 10:25:00,39.7,38.1,29.80,East,90,6.0,15.0,94,0.06,,,0.59,Wunderground v.1.15,2013-03-19 14:25:00,
2013-03-19 10:30:00,39.7,38.1,29.80,ENE,65,6.0,15.0,94,0.06,,,0.59,Wunderground v.1.15,2013-03-19 14:30:00,
2013-03-19 10:40:00,39.9,38.3,29.79,East,97,6.0,15.0,94,0.12,,,0.61,Wunderground v.1.15,2013-03-19 14:40:00,
2013-03-19 10:45:00,39.9,38.3,29.79,ESE,123,7.0,15.0,94,0.15,,,0.62,Wunderground v.1.15,2013-03-19 14:45:00,
2013-03-19 10:50:00,40.0,38.4,29.78,ENE,60,7.0,15.0,94,0.10,,,0.63,Wunderground v.1.15,2013-03-19 14:50:00,
2013-03-19 11:00:00,40.2,38.6,29.76,ENE,75,6.0,14.0,94,0.17,,,0.65,Wunderground v.1.15,2013-03-19 15:00:00,
2013-03-19 11:10:00,40.4,38.8,29.76,NE,41,6.0,6.0,94,0.07,,,0.66,Wunderground v.1.15,2013-03-19 15:10:00,
2013-03-19 11:15:00,40.4,38.8,29.76,ENE,66,6.0,14.0,94,0.06,,,0.67,Wunderground v.1.15,2013-03-19 15:15:00,
2013-03-19 11:20:00,40.5,38.9,29.76,ENE,78,5.0,14.0,94,0.06,,,0.67,Wunderground v.1.15,2013-03-19 15:20:00,
2013-03-19 11:25:00,40.6,39.0,29.75,ENE,73,5.0,14.0,94,0.05,,,0.68,Wunderground v.1.15,2013-03-19 15:25:00,
2013-03-19 11:35:00,41.0,39.4,29.74,ENE,57,6.0,14.0,94,0.23,,,0.73,Wunderground v.1.15,2013-03-19 15:35:00,
2013-03-19 11:40:00,41.1,39.5,29.74,East,101,5.0,14.0,94,0.10,,,0.73,Wunderground v.1.15,2013-03-19 15:40:00,
2013-03-19 11:45:00,41.2,39.6,29.73,East,86,5.0,14.0,94,0.07,,,0.74,Wunderground v.1.15,2013-03-19 15:45:00,
2013-03-19 11:50:00,41.3,39.7,29.73,ESE,110,5.0,5.0,94,0.07,,,0.74,Wunderground v.1.15,2013-03-19 15:50:00,
2013-03-19 11:55:00,41.4,39.8,29.73,ESE,109,5.0,14.0,94,0.05,,,0.74,Wunderground v.1.15,2013-03-19 15:55:00,
2013-03-19 12:00:00,41.4,39.8,29.73,East,97,4.0,4.0,94,0.00,,,0.74,Wunderground v.1.15,2013-03-19 16:00:00,
2013-03-19 12:10:00,41.5,39.9,29.72,ESE,106,4.0,4.0,94,0.00,,,0.75,Wunderground v.1.15,2013-03-19 16:10:00,
2013-03-19 12:15:00,41.7,40.1,29.71,East,85,4.0,12.0,94,0.10,,,0.76,Wunderground v.1.15,2013-03-19 16:15:00,
2013-03-19 12:20:00,41.9,40.6,29.71,ESE,112,5.0,12.0,95,0.15,,,0.77,Wunderground v.1.15,2013-03-19 16:20:00,
2013-03-19 12:25:00,42.0,40.7,29.70,East,79,4.0,12.0,95,0.14,,,0.78,Wunderground v.1.15,2013-03-19 16:25:00,
2013-03-19 12:30:00,42.1,40.8,29.70,ENE,57,4.0,12.0,95,0.07,,,0.79,Wunderground v.1.15,2013-03-19 16:30:00,
2013-03-19 12:35:00,42.2,40.6,29.69,ENE,75,4.0,12.0,94,0.07,,,0.79,Wunderground v.1.15,2013-03-19 16:35:00,
2013-03-19 12:45:00,42.4,40.8,29.68,ENE,75,5.0,12.0,94,0.06,,,0.80,Wunderground v.1.15,2013-03-19 16:45:00,
2013-03-19 12:50:00,42.5,41.2,29.67,ENE,75,4.0,12.0,95,0.05,,,0.80,Wunderground v.1.15,2013-03-19 16:50:00,
2013-03-19 12:55:00,42.6,41.3,29.67,SE,136,4.0,12.0,95,0.05,,,0.81,Wunderground v.1.15,2013-03-19 16:55:00,
2013-03-19 13:00:00,42.8,41.5,29.67,East,84,4.0,11.0,95,0.07,,,0.82,Wunderground v.1.15,2013-03-19 17:00:00,
2013-03-19 13:10:00,43.1,41.8,29.66,ENE,77,3.0,11.0,95,0.26,,,0.84,Wunderground v.1.15,2013-03-19 17:10:00,
2013-03-19 13:15:00,43.2,41.9,29.66,East,93,3.0,11.0,95,0.08,,,0.84,Wunderground v.1.15,2013-03-19 17:15:00,
2013-03-19 13:20:00,43.3,42.0,29.65,East,96,3.0,11.0,95,0.05,,,0.84,Wunderground v.1.15,2013-03-19 17:20:00,
2013-03-19 13:25:00,43.4,42.1,29.64,ESE,115,2.0,11.0,95,0.04,,,0.85,Wunderground v.1.15,2013-03-19 17:25:00,
2013-03-19 13:30:00,43.7,42.4,29.64,ENE,75,2.0,11.0,95,0.14,,,0.86,Wunderground v.1.15,2013-03-19 17:30:00,
2013-03-19 13:35:00,43.9,42.6,29.64,ESE,110,3.0,11.0,95,0.27,,,0.88,Wunderground v.1.15,2013-03-19 17:35:00,
2013-03-19 13:40:00,44.2,42.9,29.63,East,91,3.0,11.0,95,0.11,,,0.88,Wunderground v.1.15,2013-03-19 17:40:00,
2013-03-19 13:50:00,44.4,43.1,29.62,ESE,117,2.0,11.0,95,0.04,,,0.89,Wunderground v.1.15,2013-03-19 17:50:00,
2013-03-19 13:55:00,44.7,43.4,29.62,East,94,2.0,11.0,95,0.04,,,0.89,Wunderground v.1.15,2013-03-19 17:55:00,
2013-03-19 14:00:00,44.9,43.6,29.61,ESE,111,3.0,7.0,95,0.04,,,0.89,Wunderground v.1.15,2013-03-19 18:00:00,
2013-03-19 14:10:00,45.1,43.8,29.60,ESE,113,3.0,7.0,95,0.00,,,0.89,Wunderground v.1.15,2013-03-19 18:10:00,
2013-03-19 14:15:00,45.3,44.0,29.59,SE,126,3.0,7.0,95,0.00,,,0.89,Wunderground v.1.15,2013-03-19 18:15:00,
2013-03-19 14:20:00,45.2,43.9,29.59,SE,128,3.0,7.0,95,0.00,,,0.89,Wunderground v.1.15,2013-03-19 18:20:00,
2013-03-19 14:25:00,45.2,43.9,29.59,SE,131,3.0,7.0,95,0.00,,,0.89,Wunderground v.1.15,2013-03-19 18:25:00,
2013-03-19 14:30:00,45.3,44.0,29.58,East,94,3.0,7.0,95,0.00,,,0.89,Wunderground v.1.15,2013-03-19 18:30:00,
2013-03-19 14:40:00,45.1,43.8,29.59,SE,146,3.0,7.0,95,0.00,,,0.89,Wunderground v.1.15,2013-03-19 18:40:00,
2013-03-19 14:45:00,44.9,43.6,29.58,SE,127,3.0,7.0,95,0.00,,,0.89,Wunderground v.1.15,2013-03-19 18:45:00,
2013-03-19 14:50:00,44.9,43.6,29.59,SE,133,3.0,3.0,95,0.00,,,0.89,Wunderground v.1.15,2013-03-19 18:50:00,
2013-03-19 14:55:00,44.9,43.6,29.58,SE,129,2.0,7.0,95,0.00,,,0.90,Wunderground v.1.15,2013-03-19 18:55:00,
2013-03-19 15:00:00,44.9,43.6,29.58,ESE,113,2.0,2.0,95,0.00,,,0.90,Wunderground v.1.15,2013-03-19 19:00:00,
2013-03-19 15:10:00,45.0,43.7,29.58,SSE,149,1.0,7.0,95,0.00,,,0.90,Wunderground v.1.15,2013-03-19 19:10:00,
2013-03-19 15:15:00,45.0,43.7,29.58,SE,136,2.0,7.0,95,0.00,,,0.90,Wunderground v.1.15,2013-03-19 19:15:00,
2013-03-19 15:20:00,45.2,43.9,29.57,South,173,2.0,7.0,95,0.00,,,0.90,Wunderground v.1.15,2013-03-19 19:20:00,
2013-03-19 15:25:00,45.2,43.9,29.57,South,179,2.0,7.0,95,0.00,,,0.90,Wunderground v.1.15,2013-03-19 19:25:00,
2013-03-19 15:30:00,45.2,43.9,29.57,South,171,2.0,7.0,95,0.00,,,0.90,Wunderground v.1.15,2013-03-19 19:30:00,
2013-03-19 15:35:00,45.2,43.9,29.57,SSW,209,2.0,7.0,95,0.00,,,0.90,Wunderground v.1.15,2013-03-19 19:35:00,
2013-03-19 15:45:00,45.2,43.9,29.56,WSW,256,2.0,7.0,95,0.00,,,0.90,Wunderground v.1.15,2013-03-19 19:45:00,
2013-03-19 15:55:00,45.6,44.3,29.54,SSW,194,3.0,7.0,95,0.00,,,0.90,Wunderground v.1.15,2013-03-19 19:55:00,
2013-03-19 16:00:00,45.9,44.5,29.54,South,191,1.0,8.0,95,0.00,,,0.90,Wunderground v.1.15,2013-03-19 20:00:00,
2013-03-19 16:10:00,45.9,44.5,29.55,SW,227,2.0,8.0,95,0.00,,,0.90,Wunderground v.1.15,2013-03-19 20:10:00,
2013-03-19 16:15:00,45.6,44.3,29.54,SSW,205,3.0,8.0,95,0.00,,,0.90,Wunderground v.1.15,2013-03-19 20:15:00,
2013-03-19 16:20:00,45.5,44.2,29.54,SSE,167,3.0,3.0,95,0.00,,,0.90,Wunderground v.1.15,2013-03-19 20:20:00,
2013-03-19 16:30:00,44.9,43.6,29.54,WSW,245,3.0,3.0,95,0.00,,,0.90,Wunderground v.1.15,2013-03-19 20:30:00,
2013-03-19 16:35:00,44.8,43.5,29.54,WSW,253,2.0,8.0,95,0.00,,,0.90,Wunderground v.1.15,2013-03-19 20:35:00,
2013-03-19 16:40:00,44.6,43.3,29.53,South,185,2.0,8.0,95,0.00,,,0.90,Wunderground v.1.15,2013-03-19 20:40:00,
2013-03-19 16:45:00,44.4,43.1,29.53,SW,226,2.0,8.0,95,0.00,,,0.90,Wunderground v.1.15,2013-03-19 20:45:00,
2013-03-19 16:50:00,44.5,43.2,29.53,WSW,250,1.0,8.0,95,0.00,,,0.90,Wunderground v.1.15,2013-03-19 20:50:00,
2013-03-19 16:55:00,44.5,43.2,29.53,West,269,1.0,8.0,95,0.00,,,0.90,Wunderground v.1.15,2013-03-19 20:55:00,
2013-03-19 17:05:00,43.5,42.2,29.52,West,267,4.0,7.0,95,0.00,,,0.90,Wunderground v.1.15,2013-03-19 21:05:00,
2013-03-19 17:10:00,43.3,42.0,29.52,North,352,3.0,3.0,95,0.00,,,0.90,Wunderground v.1.15,2013-03-19 21:10:00,
2013-03-19 17:15:00,43.0,41.7,29.51,WNW,302,3.0,7.0,95,0.00,,,0.90,Wunderground v.1.15,2013-03-19 21:15:00,
2013-03-19 17:20:00,42.8,41.5,29.51,NW,307,3.0,3.0,95,0.00,,,0.90,Wunderground v.1.15,2013-03-19 21:20:00,
2013-03-19 17:25:00,42.8,41.5,29.51,NW,321,3.0,5.0,95,0.00,,,0.90,Wunderground v.1.15,2013-03-19 21:25:00,
2013-03-19 17:30:00,42.9,41.6,29.51,NW,326,3.0,7.0,95,0.00,,,0.90,Wunderground v.1.15,2013-03-19 21:30:00,
2013-03-19 17:40:00,42.5,41.2,29.51,NW,324,5.0,7.0,95,0.00,,,0.90,Wunderground v.1.15,2013-03-19 21:40:00,
2013-03-19 17:45:00,41.9,40.6,29.52,NW,311,6.0,7.0,95,0.00,,,0.90,Wunderground v.1.15,2013-03-19 21:45:00,
2013-03-19 17:50:00,41.7,40.4,29.52,North,359,5.0,5.0,95,0.00,,,0.90,Wunderground v.1.15,2013-03-19 21:50:00,
2013-03-19 17:55:00,41.6,40.3,29.52,NW,311,4.0,7.0,95,0.00,,,0.90,Wunderground v.1.15,2013-03-19 21:55:00,
2013-03-19 18:00:00,41.3,40.0,29.53,WNW,290,4.0,12.0,95,0.00,,,0.90,Wunderground v.1.15,2013-03-19 22:00:00,
2013-03-19 18:10:00,40.9,39.6,29.55,West,269,4.0,12.0,95,0.00,,,0.90,Wunderground v.1.15,2013-03-19 22:10:00,
2013-03-19 18:15:00,40.8,39.5,29.55,NW,326,5.0,12.0,95,0.00,,,0.90,Wunderground v.1.15,2013-03-19 22:15:00,
2013-03-19 18:20:00,40.6,39.3,29.55,WNW,292,5.0,5.0,95,0.00,,,0.90,Wunderground v.1.15,2013-03-19 22:20:00,
2013-03-19 18:25:00,40.4,39.1,29.55,WNW,299,5.0,12.0,95,0.00,,,0.90,Wunderground v.1.15,2013-03-19 22:25:00,
2013-03-19 18:30:00,40.2,38.9,29.56,WNW,283,5.0,12.0,95,0.00,,,0.90,Wunderground v.1.15,2013-03-19 22:30:00,
2013-03-19 18:40:00,40.2,38.9,29.57,West,262,7.0,7.0,95,0.00,,,0.90,Wunderground v.1.15,2013-03-19 22:40:00,
2013-03-19 18:45:00,40.1,38.8,29.57,NW,326,7.0,12.0,95,0.00,,,0.90,Wunderground v.1.15,2013-03-19 22:45:00,
2013-03-19 18:50:00,40.1,38.8,29.57,West,281,7.0,12.0,95,0.00,,,0.90,Wunderground v.1.15,2013-03-19 22:50:00,
2013-03-19 18:55:00,40.1,38.5,29.57,NW,304,8.0,12.0,94,0.00,,,0.90,Wunderground v.1.15,2013-03-19 22:55:00,
2013-03-19 19:00:00,40.0,38.4,29.57,NW,307,7.0,7.0,94,0.00,,,0.90,Wunderground v.1.15,2013-03-19 23:00:00,
2013-03-19 19:10:00,39.8,38.2,29.58,WNW,297,7.0,17.0,94,0.00,,,0.90,Wunderground v.1.15,2013-03-19 23:10:00,
2013-03-19 19:15:00,39.7,38.1,29.58,WNW,302,6.0,17.0,94,0.00,,,0.90,Wunderground v.1.15,2013-03-19 23:15:00,
2013-03-19 19:20:00,39.6,38.0,29.58,NW,319,7.0,17.0,94,0.00,,,0.90,Wunderground v.1.15,2013-03-19 23:20:00,
2013-03-19 19:25:00,39.4,37.8,29.58,WSW,256,8.0,17.0,94,0.00,,,0.90,Wunderground v.1.15,2013-03-19 23:25:00,
2013-03-19 19:30:00,39.1,37.5,29.59,WNW,290,9.0,9.0,94,0.00,,,0.90,Wunderground v.1.15,2013-03-19 23:30:00,
2013-03-19 19:35:00,39.0,37.4,29.58,West,276,9.0,17.0,94,0.00,,,0.90,Wunderground v.1.15,2013-03-19 23:35:00,
2013-03-19 19:40:00,38.8,37.2,29.59,WNW,293,8.0,8.0,94,0.00,,,0.90,Wunderground v.1.15,2013-03-19 23:40:00,
2013-03-19 19:50:00,38.4,36.8,29.59,WNW,303,9.0,17.0,94,0.00,,,0.90,Wunderground v.1.15,2013-03-19 23:50:00,
2013-03-19 19:55:00,38.2,36.4,29.59,WSW,255,8.0,17.0,93,0.00,,,0.90,Wunderground v.1.15,2013-03-19 23:55:00,
2013-03-19 20:00:00,38.0,36.2,29.59,NW,305,8.0,19.0,93,0.00,,,0.90,Wunderground v.1.15,2013-03-20 00:00:00,
2013-03-19 20:10:00,37.8,36.0,29.59,WNW,291,8.0,19.0,93,0.00,,,0.90,Wunderground v.1.15,2013-03-20 00:10:00,
2013-03-19 20:15:00,37.6,35.8,29.60,WNW,292,8.0,19.0,93,0.00,,,0.90,Wunderground v.1.15,2013-03-20 00:15:00,
2013-03-19 20:25:00,37.2,35.4,29.60,West,280,9.0,19.0,93,0.00,,,0.90,Wunderground v.1.15,2013-03-20 00:25:00,
2013-03-19 20:30:00,37.2,35.4,29.61,WNW,290,8.0,8.0,93,0.00,,,0.90,Wunderground v.1.15,2013-03-20 00:30:00,
2013-03-19 20:35:00,37.1,35.3,29.62,West,266,8.0,15.0,93,0.00,,,0.90,Wunderground v.1.15,2013-03-20 00:35:00,
2013-03-19 20:40:00,37.2,35.1,29.63,WSW,249,10.0,19.0,92,0.00,,,0.90,Wunderground v.1.15,2013-03-20 00:40:00,
2013-03-19 20:45:00,37.2,35.1,29.63,WNW,302,10.0,19.0,92,0.00,,,0.90,Wunderground v.1.15,2013-03-20 00:45:00,
2013-03-19 20:50:00,37.2,35.1,29.64,West,276,9.0,19.0,92,0.00,,,0.90,Wunderground v.1.15,2013-03-20 00:50:00,
2013-03-19 21:00:00,37.1,35.0,29.64,WNW,291,9.0,21.0,92,0.00,,,0.90,Wunderground v.1.15,2013-03-20 01:00:00,
2013-03-19 21:10:00,37.2,34.8,29.64,WNW,297,9.0,21.0,91,0.00,,,0.90,Wunderground v.1.15,2013-03-20 01:10:00,
2013-03-19 21:15:00,37.1,34.7,29.64,WNW,292,9.0,21.0,91,0.00,,,0.90,Wunderground v.1.15,2013-03-20 01:15:00,
2013-03-19 21:20:00,37.1,34.7,29.64,West,259,10.0,21.0,91,0.00,,,0.90,Wunderground v.1.15,2013-03-20 01:20:00,
2013-03-19 21:25:00,36.9,34.5,29.66,West,270,10.0,21.0,91,0.00,,,0.90,Wunderground v.1.15,2013-03-20 01:25:00,
2013-03-19 21:35:00,36.9,34.5,29.65,NW,306,10.0,21.0,91,0.00,,,0.90,Wunderground v.1.15,2013-03-20 01:35:00,
2013-03-19 21:40:00,36.8,34.1,29.65,WNW,292,10.0,10.0,90,0.00,,,0.90,Wunderground v.1.15,2013-03-20 01:40:00,
2013-03-19 21:45:00,36.9,34.2,29.65,NNW,330,10.0,21.0,90,0.00,,,0.90,Wunderground v.1.15,2013-03-20 01:45:00,
2013-03-19 21:50:00,36.8,33.9,29.65,WNW,290,10.0,21.0,89,0.00,,,0.90,Wunderground v.1.15,2013-03-20 01:50:00,
2013-03-19 21:55:00,36.6,33.7,29.65,NW,310,9.0,21.0,89,0.00,,,0.90,Wunderground v.1.15,2013-03-20 01:55:00,
2013-03-19 22:00:00,36.4,33.7,29.66,WNW,297,9.0,20.0,90,0.00,,,0.90,Wunderground v.1.15,2013-03-20 02:00:00,
2013-03-19 22:10:00,36.2,33.3,29.67,NNW,330,10.0,10.0,89,0.00,,,0.90,Wunderground v.1.15,2013-03-20 02:10:00,
2013-03-19 22:15:00,36.2,33.3,29.66,NW,309,9.0,20.0,89,0.00,,,0.90,Wunderground v.1.15,2013-03-20 02:15:00,
2013-03-19 22:20:00,36.1,33.2,29.67,NW,317,9.0,20.0,89,0.00,,,0.90,Wunderground v.1.15,2013-03-20 02:20:00,
2013-03-19 22:25:00,35.9,32.7,29.66,NNW,331,8.0,20.0,88,0.00,,,0.90,Wunderground v.1.15,2013-03-20 02:25:00,
2013-03-19 22:30:00,35.8,32.6,29.65,WNW,295,9.0,9.0,88,0.00,,,0.90,Wunderground v.1.15,2013-03-20 02:30:00,
2013-03-19 22:35:00,35.6,32.4,29.66,WNW,293,8.0,20.0,88,0.00,,,0.90,Wunderground v.1.15,2013-03-20 02:35:00,
2013-03-19 22:40:00,35.5,32.3,29.66,West,265,7.0,20.0,88,0.00,,,0.90,Wunderground v.1.15,2013-03-20 02:40:00,
2013-03-19 22:50:00,35.3,32.1,29.66,NW,308,7.0,7.0,88,0.00,,,0.90,Wunderground v.1.15,2013-03-20 02:50:00,
2013-03-19 22:55:00,35.3,32.1,29.66,NW,311,6.0,10.0,88,0.00,,,0.90,Wunderground v.1.15,2013-03-20 02:55:00,
2013-03-19 23:00:00,35.2,32.0,29.66,NW,326,7.0,7.0,88,0.00,,,0.90,Wunderground v.1.15,2013-03-20 03:00:00,
2013-03-19 23:10:00,35.1,31.9,29.67,WNW,297,6.0,21.0,88,0.00,,,0.90,Wunderground v.1.15,2013-03-20 03:10:00,
2013-03-19 23:15:00,35.0,31.8,29.67,WNW,297,6.0,21.0,88,0.00,,,0.90,Wunderground v.1.15,2013-03-20 03:15:00,
2013-03-19 23:25:00,34.9,31.7,29.68,NW,319,6.0,21.0,88,0.00,,,0.90,Wunderground v.1.15,2013-03-20 03:25:00,
2013-03-19 23:30:00,34.8,31.6,29.68,NNW,328,6.0,6.0,88,0.00,,,0.90,Wunderground v.1.15,2013-03-20 03:30:00,
2013-03-19 23:35:00,34.7,31.5,29.68,West,265,5.0,11.0,88,0.00,,,0.90,Wunderground v.1.15,2013-03-20 03:35:00,
2013-03-19 23:40:00,34.7,31.5,29.69,WNW,288,5.0,21.0,88,0.00,,,0.90,Wunderground v.1.15,2013-03-20 03:40:00,
2013-03-19 23:45:00,34.7,31.5,29.68,WNW,300,6.0,21.0,88,0.00,,,0.90,Wunderground v.1.15,2013-03-20 03:45:00,
2013-03-19 23:50:00,34.6,31.4,29.68,WNW,299,5.0,5.0,88,0.00,,,0.90,Wunderground v.1.15,2013-03-20 03:50:00,
2013-03-19 23:55:00,34.5,31.3,29.68,NW,311,4.0,21.0,88,0.00,,,0.90,Wunderground v.1.15,2013-03-20 03:55:00,